Current Version              Previous Version:    01  02  03  04  05  06  07  08  09  10  11  12  13  14  15  16  17  18  19  20  21  22  23  24  25  26  27  28  29  30  
   31  32  33  34  35  36  37  38  39  40  41  42  43  44  45  46  47  48  49  50  51  52  53  54  55  56  57  58  59  60  

[Printable]
602
ASUS44 KFWD 220215
RWRTX
NORTH TEXAS HOURLY WEATHER ROUNDUP
NATIONAL WEATHER SERVICE FORT WORTH TX
900 PM CDT TUE OCT 21 2014

NOTE: "FAIR" INDICATES FEW OR NO CLOUDS BELOW 12,000 FEET WITH NO
SIGNIFICANT WEATHER AND/OR OBSTRUCTIONS TO VISIBILITY.

TXZ118-119-220300-
DALLAS/FORT WORTH METROPLEX

CITY           SKY/WX    TMP DP  RH WIND       PRES   REMARKS
DFW AIRPORT    PTCLDY    70  58  65 SE6       30.05R
DALLAS LOVE    PTCLDY    73  59  61 E6        30.05R
FTW MEACHAM    CLEAR     71  57  61 SE6       30.04R
DAL-EXECUTIVE  CLEAR     68  58  70 SE3       30.05R
FTW-ALLIANCE   CLEAR     69  57  65 SE6       30.05R
FTW-NAS-JRB    CLEAR     75  55  49 SE6       30.09R
FTW-SPINKS     CLEAR     64  55  72 SE3       30.07S
ARLINGTON      CLEAR     68  58  70 SE3       30.05R
GRAND PRAIRIE  CLEAR     72  59  64 SE3       30.06S
ADDISON        CLEAR     73  57  56 E8        30.06R
LANCASTER      CLEAR     67  55  66 CALM      30.06R
$$

TXZ091>094-102>105-117-120-121-131>134-220300-
NORTH CENTRAL TEXAS

CITY           SKY/WX    TMP DP  RH WIND       PRES   REMARKS
SHRMAN/DENISON CLEAR     71  62  72 SE6       30.07R
GAINESVILLE    CLEAR     67  58  72 CALM      30.07S
BOWIE          CLEAR     66  54  65 CALM      30.05S
BRIDGEPORT     CLEAR     69  54  58 SE5       30.07R
DECATUR        CLEAR     68  55  62 SE6       30.06S
DENTON         CLEAR     68  58  70 SE6       30.05R
MCKINNEY       CLEAR     70  60  70 SE5       30.05S
GREENVILLE     CLEAR     64  59  82 CALM      30.06S
ROCKWALL       CLEAR     69  61  76 E6        30.05R
TERRELL        CLEAR     69  60  73 E3        30.06R
WAXAHACHIE     CLEAR     67  58  73 CALM      30.06S
CLEBURNE       CLEAR     70  59  68 E7        30.07S
GRANBURY       CLEAR     69  54  57 E3        30.06S
$$

TXZ083>090-098>101-113>116-127>130-139>142-154-155-220300-
WESTERN NORTH TEXAS

CITY           SKY/WX    TMP DP  RH WIND       PRES   REMARKS
WICHITA FALLS  CLEAR     64  51  62 SE8       30.03R
WF-KICKAPOO    CLEAR     69  49  49 SE5       30.05R
VERNON         CLEAR     70  52  52 SE5       30.05R
ABILENE        MOCLDY    69  51  52 S7        30.06R
ABILENE-DYESS  MOCLDY    68  52  56 S5        30.05R
BRECKENRIDGE   CLEAR     70  50  48 SE8       30.05R
GRAHAM         CLEAR     69  52  54 SE5       30.03R
MINERAL WELLS  CLEAR     66  51  58 SE7       30.04R
STEPHENVILLE   PTCLDY    67  50  54 SE6       30.09R
COMANCHE       CLEAR     65  53  64 S5        30.06R
BROWNWOOD      MOCLDY    66  50  55 E6        30.06R
COLEMAN        PTCLDY    70  53  55 SE6       30.06R
BRADY          CLEAR     68  52  56 E5        30.06R
$$

TXZ143>147-156>162-174-175-220300-
CENTRAL TEXAS

CITY           SKY/WX    TMP DP  RH WIND       PRES   REMARKS
WACO           PTCLDY    68  57  68 E6        30.05R
WACO-MCGREGOR  PTCLDY    66  50  55 CALM      30.06R
HILLSBORO      CLEAR     69  55  60 E6        30.06R
CORSICANA      CLEAR     70  60  70 SE3       30.06R
MEXIA          CLEAR     68  60  76 CALM      30.05R
HEARNE         CLEAR     66  60  81 CALM      30.05R
CAMERON        PTCLDY    70  58  65 CALM      30.04R
TEMPLE         PTCLDY    66  52  59 E7        30.03S
KILLEEN        MOCLDY    72  48  43 E6        30.04S
KILLEEN-SKYLRK PTCLDY    66  48  52 E5        30.03F
FORT HOOD      PTCLDY    71  52  50 E3        30.04S
GATESVILLE     PTCLDY    64  52  63 CALM      30.07S
HAMILTON       PTCLDY    68  48  48 SE8       30.06S
LAMPASAS       MOCLDY    68  52  55 CALM      30.04S
$$

TXZ095>097-106>112-122>126-135>138-148>153-164>167-220300-
EAST TEXAS

CITY           SKY/WX    TMP DP  RH WIND       PRES   REMARKS
PARIS          CLEAR     68  55  64 CALM      30.07R
SULPHUR SPRNGS CLEAR     67  61  80 CALM      30.08S
MOUNT PLEASANT CLEAR     66  64  94 CALM      30.07S
MINEOLA        CLEAR     64  63  94 CALM      30.07S
TYLER          CLEAR     69  62  78 CALM      30.06R
LONGVIEW       CLEAR     66  62  87 CALM      30.05R
MARSHALL       CLEAR     67  64  90 CALM      30.07R
ATHENS         CLEAR     64  61  88 CALM      30.04S
PALESTINE      CLEAR     65  63  94 CALM      30.06R
JACKSONVILLE   CLEAR     69  62  77 CALM      30.08R
HENDERSON      CLEAR     64  64  98 CALM      30.07S FOG
NACOGDOCHES    CLEAR     63  59  88 CALM      30.06R
LUFKIN         CLEAR     67  62  84 CALM      30.05R
$$

SUPPLEMENTAL OBSERVATIONS (CENTRAL)

CITY           SKY/WX    TMP DP  RH WIND       PRES   REMARKS
LAKE TEXOMA      N/A     72  59  64 S5          N/A
CADDO GRASSLND   N/A     64  61  88 CALM        N/A
PAT MAYSE LAKE   N/A     70  63  78 E1          N/A
GREENVILLE       N/A     68  59  73 E2          N/A
CEDAR HILL       N/A     68  57  68 SE3         N/A
ATHENS           N/A     68  61  77 E1          N/A
PALESTINE        N/A     63  59  88 CALM        N/A
MCGREGOR         N/A     70  54  56 E3          N/A
TEMPLE           N/A     70  55  60 E6          N/A
$$

SUPPLEMENTAL OBSERVATIONS (WEST)

CITY           SKY/WX    TMP DP  RH WIND       PRES   REMARKS
MILLERS CREEK    N/A     66  45  45 SE6         N/A
POSSUM KINGDOM   N/A     72  46  40 SE8         N/A
GRANBURY         N/A     70  52  52 SE2         N/A
HAMBY            N/A     66  52  59 SE6         N/A
IVIE RESERVOIR   N/A     70  52  52 E5          N/A
COLORADO BEND    N/A     64  48  55 SE2         N/A
$$

SUPPLEMENTAL OBSERVATIONS (EAST)

CITY           SKY/WX    TMP DP  RH WIND       PRES   REMARKS
TEXARKANA        N/A     61  57  88 CALM        N/A
LINDEN           N/A     64  61  88 CALM        N/A
CADDO LAKE       N/A     61  59  94 CALM        N/A
LUFKIN           N/A     64  61  88 MISG        N/A
N SABINE NF      N/A     63  59  88 MISG        N/A
$$

SUPPLEMENTAL OBSERVATIONS ARE A COLLECTION OF AUTOMATED INSTRUMENTS
THAT ARE MAINTAINED BY A VARIETY OF FEDERAL AND STATE AGENCIES.
CERTAIN ELEMENTS...SUCH AS HUMIDITY VALUES AND SUSTAINED WIND
SPEEDS...MAY BE APPROXIMATED.